| time (UTC) | temp F | wind direction | speed knots | gust knots | rain 1hr in | rain 24hr in | rain mn in | humidity % | barometer mb |
| 20260508004533 | 54 | 323 | 0.9 | 2.6 | 0.00 | 0.05 | 0.04 | 39 | 1006.2 |
| 20260508004019 | 54 | 346 | 0.9 | 2.6 | 0.00 | 0.05 | 0.04 | 39 | 1006.2 |
| 20260508003520 | 54 | 304 | 0.0 | 2.6 | 0.00 | 0.05 | 0.04 | 39 | 1006.1 |
| 20260508003051 | 54 | 0 | 0.0 | 2.6 | 0.00 | 0.05 | 0.04 | 38 | 1006.1 |
| 20260508002524 | 55 | 0 | 0.9 | 2.6 | 0.00 | 0.05 | 0.04 | 38 | 1006.0 |
| 20260508002022 | 55 | 0 | 0.0 | 2.6 | 0.00 | 0.05 | 0.04 | 38 | 1006.1 |
| 20260508001531 | 55 | 328 | 0.0 | 2.6 | 0.00 | 0.05 | 0.04 | 38 | 1006.0 |
| 20260508001016 | 56 | 279 | 0.0 | 3.5 | 0.00 | 0.05 | 0.04 | 37 | 1006.0 |
| 20260508000520 | 56 | 341 | 0.9 | 3.5 | 0.00 | 0.05 | 0.04 | 36 | 1006.0 |
| 20260508000041 | 56 | 352 | 0.9 | 3.5 | 0.00 | 0.05 | 0.04 | 35 | 1005.9 |
| 20260507235517 | 56 | 229 | 0.9 | 3.5 | 0.00 | 0.11 | 0.04 | 35 | 1005.9 |
| 20260507235016 | 57 | 0 | 0.0 | 3.5 | 0.00 | 0.11 | 0.04 | 35 | 1005.9 |
| 20260507234534 | 57 | 0 | 0.9 | 6.1 | 0.00 | 0.11 | 0.04 | 33 | 1005.8 |
| 20260507234016 | 57 | 329 | 1.7 | 6.1 | 0.00 | 0.11 | 0.04 | 34 | 1005.9 |
| 20260507233518 | 57 | 268 | 2.6 | 6.1 | 0.00 | 0.11 | 0.04 | 33 | 1005.8 |
| 20260507233036 | 57 | 329 | 0.9 | 5.2 | 0.00 | 0.11 | 0.04 | 34 | 1005.8 |
| 20260507232521 | 57 | 0 | 0.9 | 5.2 | 0.00 | 0.11 | 0.04 | 34 | 1005.7 |
| 20260507232019 | 58 | 315 | 0.9 | 5.2 | 0.00 | 0.11 | 0.04 | 33 | 1005.7 |
| 20260507231532 | 58 | 264 | 0.9 | 5.2 | 0.00 | 0.11 | 0.04 | 33 | 1005.6 |
| 20260507231021 | 58 | 325 | 0.9 | 4.3 | 0.00 | 0.11 | 0.04 | 34 | 1005.6 |
| 20260507230516 | 58 | 0 | 0.9 | 5.2 | 0.00 | 0.11 | 0.04 | 32 | 1005.5 |
| 20260507230038 | 59 | 290 | 0.9 | 6.1 | 0.00 | 0.11 | 0.04 | 33 | 1005.4 |
| 20260507225521 | 59 | 329 | 1.7 | 6.1 | 0.00 | 0.16 | 0.04 | 32 | 1005.4 |
| 20260507225020 | 59 | 298 | 1.7 | 8.7 | 0.00 | 0.16 | 0.04 | 32 | 1005.5 |
| 20260507224547 | 60 | 0 | 1.7 | 8.7 | 0.00 | 0.16 | 0.04 | 31 | 1005.4 |
| 20260507224018 | 60 | 302 | 0.9 | 5.2 | 0.00 | 0.16 | 0.04 | 31 | 1005.4 |
| 20260507223519 | 59 | 232 | 1.7 | 7.0 | 0.00 | 0.16 | 0.04 | 31 | 1005.3 |
| 20260507223034 | 59 | 300 | 0.9 | 7.0 | 0.00 | 0.16 | 0.04 | 32 | 1005.2 |
| 20260507222516 | 60 | 205 | 2.6 | 7.0 | 0.00 | 0.16 | 0.04 | 32 | 1005.3 |
| 20260507222017 | 61 | 351 | 2.6 | 7.0 | 0.00 | 0.16 | 0.04 | 30 | 1005.1 |
| 20260507221531 | 61 | 69 | 0.9 | 6.1 | 0.00 | 0.16 | 0.04 | 33 | 1005.1 |
| 20260507221020 | 61 | 277 | 0.9 | 6.1 | 0.00 | 0.16 | 0.04 | 32 | 1005.1 |
| 20260507220517 | 61 | 327 | 0.9 | 7.0 | 0.00 | 0.16 | 0.04 | 31 | 1005.1 |
| 20260507220034 | 61 | 315 | 2.6 | 7.8 | 0.00 | 0.16 | 0.04 | 30 | 1005.0 |
| 20260507215518 | 61 | 346 | 1.7 | 7.8 | 0.00 | 0.18 | 0.04 | 30 | 1005.0 |
| 20260507215015 | 62 | 277 | 3.5 | 7.8 | 0.00 | 0.18 | 0.04 | 30 | 1004.9 |
| 20260507214532 | 62 | 320 | 0.9 | 7.8 | 0.00 | 0.18 | 0.04 | 32 | 1004.8 |
| 20260507214016 | 62 | 0 | 1.7 | 7.8 | 0.00 | 0.18 | 0.04 | 31 | 1004.9 |
| 20260507213516 | 62 | 323 | 2.6 | 6.1 | 0.00 | 0.18 | 0.04 | 31 | 1004.9 |
| 20260507213034 | 62 | 296 | 0.9 | 10.4 | 0.00 | 0.18 | 0.04 | 33 | 1004.7 |
| 20260507212515 | 62 | 246 | 1.7 | 10.4 | 0.00 | 0.18 | 0.04 | 32 | 1004.7 |
| 20260507212016 | 62 | 207 | 3.5 | 10.4 | 0.00 | 0.18 | 0.04 | 30 | 1004.7 |
| 20260507211534 | 63 | 277 | 1.7 | 7.0 | 0.00 | 0.18 | 0.04 | 30 | 1004.8 |
| 20260507211015 | 63 | 0 | 2.6 | 7.0 | 0.00 | 0.18 | 0.04 | 31 | 1004.8 |
| 20260507210518 | 63 | 5 | 1.7 | 6.1 | 0.00 | 0.18 | 0.04 | 31 | 1004.8 |
| 20260507210038 | 63 | 279 | 0.9 | 6.1 | 0.00 | 0.18 | 0.04 | 31 | 1004.7 |
| 20260507205515 | 63 | 340 | 1.7 | 7.0 | 0.00 | 0.25 | 0.04 | 33 | 1004.8 |
| 20260507205017 | 63 | 320 | 2.6 | 7.0 | 0.00 | 0.25 | 0.04 | 31 | 1004.8 |
| 20260507204536 | 63 | 330 | 1.7 | 10.4 | 0.00 | 0.25 | 0.04 | 33 | 1004.8 |
| 20260507204016 | 63 | 271 | 2.6 | 11.3 | 0.00 | 0.25 | 0.04 | 31 | 1004.7 |
| 20260507203516 | 63 | 320 | 4.3 | 11.3 | 0.00 | 0.25 | 0.04 | 30 | 1004.7 |
| 20260507203032 | 64 | 343 | 2.6 | 11.3 | 0.00 | 0.25 | 0.04 | 30 | 1004.5 |
| 20260507202515 | 63 | 310 | 3.5 | 11.3 | 0.00 | 0.25 | 0.04 | 31 | 1004.6 |
| 20260507202017 | 63 | 338 | 1.7 | 11.3 | 0.00 | 0.25 | 0.04 | 30 | 1004.7 |
| 20260507201533 | 63 | 303 | 1.7 | 7.8 | 0.00 | 0.25 | 0.04 | 31 | 1004.6 |
| 20260507201018 | 63 | 331 | 2.6 | 9.6 | 0.00 | 0.25 | 0.04 | 32 | 1004.7 |
| 20260507200517 | 63 | 5 | 2.6 | 9.6 | 0.00 | 0.25 | 0.04 | 30 | 1004.8 |
| 20260507200035 | 64 | 300 | 2.6 | 9.6 | 0.00 | 0.25 | 0.04 | 30 | 1004.8 |
| 20260507195516 | 63 | 324 | 2.6 | 8.7 | 0.00 | 0.28 | 0.04 | 30 | 1004.9 |
| 20260507195017 | 63 | 286 | 1.7 | 10.4 | 0.00 | 0.28 | 0.04 | 31 | 1004.9 |
| 20260507194538 | 63 | 319 | 2.6 | 10.4 | 0.00 | 0.28 | 0.04 | 29 | 1005.0 |
| 20260507194018 | 63 | 322 | 1.7 | 8.7 | 0.00 | 0.28 | 0.04 | 29 | 1004.9 |
| 20260507193516 | 63 | 348 | 1.7 | 10.4 | 0.00 | 0.28 | 0.04 | 30 | 1005.1 |
| 20260507193035 | 63 | 247 | 2.6 | 10.4 | 0.00 | 0.28 | 0.04 | 31 | 1005.0 |
| 20260507192517 | 63 | 292 | 3.5 | 10.4 | 0.00 | 0.28 | 0.04 | 29 | 1005.2 |
| 20260507192017 | 63 | 217 | 2.6 | 10.4 | 0.00 | 0.28 | 0.04 | 31 | 1005.3 |
| 20260507191535 | 63 | 352 | 2.6 | 7.0 | 0.00 | 0.28 | 0.04 | 30 | 1005.2 |
| 20260507191016 | 63 | 346 | 1.7 | 7.8 | 0.00 | 0.28 | 0.04 | 29 | 1005.3 |
| 20260507190518 | 63 | 267 | 1.7 | 9.6 | 0.00 | 0.28 | 0.04 | 33 | 1005.4 |
| 20260507190036 | 63 | 340 | 1.7 | 9.6 | 0.00 | 0.28 | 0.04 | 32 | 1005.5 |
| 20260507185517 | 63 | 335 | 2.6 | 9.6 | 0.00 | 0.28 | 0.04 | 29 | 1005.5 |
| 20260507185017 | 64 | 281 | 2.6 | 7.0 | 0.00 | 0.28 | 0.04 | 29 | 1005.5 |
| 20260507184533 | 63 | 335 | 2.6 | 7.0 | 0.00 | 0.28 | 0.04 | 29 | 1005.4 |
| 20260507184018 | 64 | 323 | 1.7 | 10.4 | 0.00 | 0.28 | 0.04 | 30 | 1005.4 |
| 20260507183517 | 63 | 336 | 1.7 | 10.4 | 0.00 | 0.28 | 0.04 | 30 | 1005.5 |
| 20260507183031 | 63 | 276 | 3.5 | 10.4 | 0.00 | 0.28 | 0.04 | 30 | 1005.4 |
| 20260507182516 | 63 | 317 | 2.6 | 10.4 | 0.00 | 0.28 | 0.04 | 31 | 1005.5 |
| 20260507182017 | 63 | 254 | 3.5 | 10.4 | 0.00 | 0.28 | 0.04 | 30 | 1005.6 |
| 20260507181534 | 63 | 340 | 2.6 | 9.6 | 0.00 | 0.28 | 0.04 | 30 | 1005.7 |
| 20260507181018 | 64 | 317 | 1.7 | 7.0 | 0.00 | 0.28 | 0.04 | 32 | 1005.5 |
| 20260507180517 | 64 | 111 | 2.6 | 7.8 | 0.00 | 0.28 | 0.04 | 31 | 1005.6 |
| 20260507180030 | 63 | 248 | 1.7 | 7.8 | 0.00 | 0.28 | 0.04 | 32 | 1005.6 |
| 20260507175520 | 64 | 275 | 1.7 | 8.7 | 0.00 | 0.28 | 0.04 | 32 | 1005.7 |
| 20260507175018 | 62 | 290 | 1.7 | 8.7 | 0.00 | 0.28 | 0.04 | 35 | 1005.6 |
| 20260507174559 | 63 | 278 | 2.6 | 8.7 | 0.00 | 0.28 | 0.04 | 32 | 1005.7 |
| 20260507174016 | 63 | 231 | 2.6 | 8.7 | 0.00 | 0.28 | 0.04 | 32 | 1005.7 |
| 20260507173517 | 63 | 293 | 3.5 | 8.7 | 0.00 | 0.28 | 0.04 | 32 | 1005.6 |
| 20260507173036 | 63 | 286 | 1.7 | 7.8 | 0.00 | 0.28 | 0.04 | 34 | 1005.5 |
| 20260507172517 | 63 | 314 | 1.7 | 9.6 | 0.00 | 0.28 | 0.04 | 36 | 1005.6 |
| 20260507172017 | 63 | 360 | 2.6 | 9.6 | 0.00 | 0.28 | 0.04 | 34 | 1005.6 |
| 20260507171533 | 63 | 340 | 2.6 | 7.0 | 0.00 | 0.28 | 0.04 | 35 | 1005.7 |
| 20260507171018 | 63 | 31 | 1.7 | 8.7 | 0.00 | 0.28 | 0.04 | 40 | 1005.8 |
| 20260507170517 | 62 | 352 | 0.9 | 8.7 | 0.00 | 0.28 | 0.04 | 38 | 1005.9 |
| 20260507170031 | 62 | 258 | 1.7 | 7.8 | 0.00 | 0.28 | 0.04 | 38 | 1005.9 |
| 20260507165517 | 62 | 24 | 1.7 | 7.8 | 0.00 | 0.28 | 0.04 | 36 | 1006.2 |
| 20260507165018 | 63 | 273 | 1.7 | 7.0 | 0.00 | 0.28 | 0.04 | 38 | 1006.2 |
| 20260507164534 | 62 | 0 | 1.7 | 9.6 | 0.00 | 0.28 | 0.04 | 36 | 1006.2 |
| 20260507164018 | 62 | 352 | 2.6 | 12.2 | 0.00 | 0.28 | 0.04 | 41 | 1006.2 |
| 20260507163517 | 62 | 269 | 1.7 | 12.2 | 0.00 | 0.28 | 0.04 | 40 | 1006.4 |
| 20260507163035 | 62 | 296 | 3.5 | 12.2 | 0.00 | 0.28 | 0.04 | 39 | 1006.4 |
| 20260507162515 | 62 | 205 | 1.7 | 7.0 | 0.00 | 0.28 | 0.04 | 45 | 1006.5 |
| 20260507162021 | 61 | 16 | 1.7 | 7.0 | 0.00 | 0.28 | 0.04 | 46 | 1006.4 |
| 20260507161535 | 62 | 297 | 1.7 | 7.8 | 0.00 | 0.28 | 0.04 | 49 | 1006.6 |
| 20260507161017 | 62 | 338 | 3.5 | 7.8 | 0.00 | 0.28 | 0.04 | 50 | 1006.5 |
| 20260507160516 | 61 | 291 | 1.7 | 7.8 | 0.00 | 0.28 | 0.04 | 50 | 1006.6 |
| 20260507160038 | 61 | 285 | 1.7 | 10.4 | 0.00 | 0.28 | 0.04 | 51 | 1006.6 |
| 20260507155517 | 61 | 287 | 2.6 | 10.4 | 0.00 | 0.28 | 0.04 | 49 | 1006.6 |
| 20260507155016 | 61 | 324 | 2.6 | 8.7 | 0.00 | 0.28 | 0.04 | 50 | 1006.6 |
| 20260507154534 | 60 | 315 | 2.6 | 7.8 | 0.00 | 0.28 | 0.04 | 50 | 1006.6 |
| 20260507154017 | 60 | 352 | 2.6 | 7.8 | 0.00 | 0.28 | 0.04 | 50 | 1006.6 |
| 20260507153518 | 59 | 347 | 1.7 | 5.2 | 0.00 | 0.28 | 0.04 | 53 | 1006.6 |
| 20260507153036 | 59 | 278 | 1.7 | 7.8 | 0.00 | 0.28 | 0.04 | 52 | 1006.8 |
| 20260507152519 | 59 | 303 | 0.9 | 7.8 | 0.00 | 0.28 | 0.04 | 56 | 1006.8 |
| 20260507152018 | 59 | 300 | 2.6 | 7.8 | 0.00 | 0.28 | 0.04 | 53 | 1007.0 |
| 20260507151532 | 59 | 273 | 2.6 | 7.8 | 0.00 | 0.28 | 0.04 | 53 | 1007.0 |
| 20260507151018 | 59 | 302 | 1.7 | 7.8 | 0.00 | 0.28 | 0.04 | 53 | 1007.0 |
| 20260507150518 | 59 | 274 | 0.9 | 5.2 | 0.00 | 0.28 | 0.04 | 51 | 1007.1 |
| 20260507150033 | 60 | 273 | 0.9 | 6.1 | 0.00 | 0.28 | 0.04 | 53 | 1007.1 |
| 20260507145518 | 60 | 199 | 2.6 | 6.1 | 0.00 | 0.28 | 0.04 | 50 | 1007.1 |
| 20260507145017 | 59 | 250 | 0.9 | 5.2 | 0.00 | 0.28 | 0.04 | 54 | 1007.2 |
| 20260507144535 | 59 | 5 | 2.6 | 5.2 | 0.00 | 0.28 | 0.04 | 52 | 1007.3 |
| 20260507144018 | 59 | 332 | 2.6 | 6.1 | 0.00 | 0.28 | 0.04 | 50 | 1007.4 |
| 20260507143515 | 60 | 178 | 1.7 | 8.7 | 0.00 | 0.28 | 0.04 | 48 | 1007.3 |
| 20260507143033 | 61 | 289 | 2.6 | 9.6 | 0.00 | 0.28 | 0.04 | 48 | 1007.3 |
| 20260507142520 | 60 | 113 | 1.7 | 9.6 | 0.00 | 0.28 | 0.04 | 49 | 1007.2 |
| 20260507142017 | 60 | 322 | 2.6 | 9.6 | 0.00 | 0.28 | 0.04 | 50 | 1007.3 |
| 20260507141536 | 60 | 317 | 1.7 | 6.1 | 0.00 | 0.28 | 0.04 | 49 | 1007.3 |
| 20260507141018 | 60 | 302 | 1.7 | 6.1 | 0.00 | 0.28 | 0.04 | 52 | 1007.3 |
| 20260507140517 | 60 | 198 | 1.7 | 5.2 | 0.00 | 0.28 | 0.04 | 52 | 1007.3 |
| 20260507140047 | 60 | 336 | 1.7 | 5.2 | 0.00 | 0.28 | 0.04 | 53 | 1007.3 |
| 20260507135520 | 59 | 0 | 0.9 | 3.5 | 0.00 | 0.28 | 0.04 | 53 | 1007.2 |
| 20260507135021 | 59 | 276 | 0.9 | 3.5 | 0.00 | 0.28 | 0.04 | 55 | 1007.1 |
| 20260507134535 | 59 | 306 | 0.9 | 3.5 | 0.00 | 0.28 | 0.04 | 57 | 1007.1 |
| 20260507134023 | 58 | 360 | 0.9 | 2.6 | 0.00 | 0.28 | 0.04 | 57 | 1007.2 |
| 20260507133522 | 58 | 263 | 0.9 | 3.5 | 0.00 | 0.28 | 0.04 | 59 | 1007.3 |
| 20260507133034 | 57 | 340 | 0.9 | 4.3 | 0.00 | 0.28 | 0.04 | 59 | 1007.3 |
| 20260507132519 | 57 | 245 | 0.9 | 5.2 | 0.00 | 0.28 | 0.04 | 61 | 1007.5 |
| 20260507132020 | 56 | 209 | 1.7 | 5.2 | 0.00 | 0.28 | 0.04 | 61 | 1007.6 |
| 20260507131541 | 56 | 268 | 1.7 | 6.1 | 0.00 | 0.28 | 0.04 | 62 | 1007.6 |
| 20260507131018 | 56 | 349 | 0.9 | 6.1 | 0.00 | 0.28 | 0.04 | 63 | 1007.7 |
| 20260507130517 | 56 | 46 | 1.7 | 6.1 | 0.00 | 0.28 | 0.04 | 64 | 1007.6 |
| 20260507130034 | 55 | 308 | 0.9 | 5.2 | 0.00 | 0.28 | 0.04 | 65 | 1007.7 |
| 20260507125517 | 55 | 98 | 0.9 | 5.2 | 0.00 | 0.28 | 0.04 | 66 | 1007.7 |
| 20260507125019 | 54 | 18 | 0.9 | 6.1 | 0.00 | 0.28 | 0.04 | 67 | 1007.8 |
| 20260507124534 | 54 | 360 | 1.7 | 6.1 | 0.00 | 0.28 | 0.04 | 67 | 1007.7 |
| 20260507124021 | 54 | 338 | 1.7 | 6.1 | 0.00 | 0.28 | 0.04 | 69 | 1007.8 |
| 20260507123519 | 53 | 281 | 2.6 | 6.1 | 0.00 | 0.28 | 0.04 | 71 | 1007.7 |
| 20260507123036 | 53 | 305 | 1.7 | 5.2 | 0.00 | 0.28 | 0.04 | 74 | 1007.7 |
| 20260507122517 | 52 | 295 | 0.9 | 4.3 | 0.00 | 0.28 | 0.04 | 74 | 1007.8 |
| 20260507122018 | 52 | 312 | 1.7 | 4.3 | 0.00 | 0.28 | 0.04 | 75 | 1007.8 |
| 20260507121535 | 51 | 277 | 0.9 | 4.3 | 0.00 | 0.28 | 0.04 | 76 | 1007.7 |
| 20260507121018 | 51 | 306 | 0.9 | 4.3 | 0.00 | 0.28 | 0.04 | 77 | 1007.9 |
| 20260507120518 | 51 | 306 | 0.9 | 5.2 | 0.00 | 0.28 | 0.04 | 78 | 1007.9 |
| 20260507120035 | 51 | 333 | 0.9 | 5.2 | 0.00 | 0.28 | 0.04 | 80 | 1007.8 |
| 20260507115523 | 50 | 0 | 0.9 | 2.6 | 0.00 | 0.28 | 0.04 | 80 | 1007.9 |
| 20260507115023 | 50 | 326 | 0.9 | 3.5 | 0.00 | 0.28 | 0.04 | 80 | 1007.8 |
| 20260507114535 | 50 | 319 | 0.9 | 5.2 | 0.00 | 0.28 | 0.04 | 80 | 1007.6 |
| 20260507114019 | 50 | 295 | 0.9 | 5.2 | 0.00 | 0.28 | 0.04 | 80 | 1007.8 |
| 20260507113519 | 50 | 288 | 0.9 | 5.2 | 0.00 | 0.28 | 0.04 | 80 | 1007.8 |
| 20260507113034 | 49 | 0 | 0.9 | 2.6 | 0.00 | 0.28 | 0.04 | 81 | 1007.7 |
| 20260507112517 | 49 | 294 | 0.9 | 2.6 | 0.00 | 0.28 | 0.04 | 81 | 1007.6 |
| 20260507112019 | 49 | 321 | 0.0 | 1.7 | 0.00 | 0.28 | 0.04 | 81 | 1007.4 |
| 20260507111544 | 49 | 311 | 0.0 | 1.7 | 0.00 | 0.28 | 0.04 | 81 | 1007.4 |
| 20260507111017 | 49 | 0 | 0.0 | 3.5 | 0.00 | 0.28 | 0.04 | 81 | 1007.5 |
| 20260507110520 | 49 | 328 | 0.0 | 3.5 | 0.00 | 0.28 | 0.04 | 81 | 1007.5 |
| 20260507110035 | 49 | 290 | 0.9 | 3.5 | 0.00 | 0.28 | 0.04 | 81 | 1007.7 |
| 20260507105516 | 49 | 335 | 0.9 | 5.2 | 0.00 | 0.28 | 0.04 | 82 | 1007.7 |
| 20260507105018 | 49 | 314 | 0.9 | 5.2 | 0.00 | 0.28 | 0.04 | 82 | 1007.6 |
| 20260507104536 | 49 | 278 | 0.9 | 5.2 | 0.00 | 0.28 | 0.04 | 82 | 1007.4 |
| 20260507104017 | 49 | 0 | 0.0 | 3.5 | 0.00 | 0.28 | 0.04 | 82 | 1007.1 |
| 20260507103517 | 49 | 333 | 0.9 | 3.5 | 0.00 | 0.28 | 0.04 | 83 | 1007.2 |
| 20260507103035 | 48 | 280 | 0.9 | 5.2 | 0.00 | 0.28 | 0.04 | 83 | 1006.9 |
| 20260507102518 | 49 | 0 | 0.9 | 5.2 | 0.00 | 0.28 | 0.04 | 83 | 1007.0 |
| 20260507102018 | 49 | 307 | 0.0 | 7.0 | 0.00 | 0.28 | 0.04 | 84 | 1006.9 |
| 20260507101553 | 49 | 323 | 1.7 | 7.0 | 0.00 | 0.28 | 0.04 | 84 | 1006.9 |
| 20260507101019 | 49 | 287 | 0.9 | 4.3 | 0.00 | 0.28 | 0.04 | 84 | 1007.0 |
| 20260507100519 | 49 | 337 | 1.7 | 5.2 | 0.00 | 0.28 | 0.04 | 84 | 1007.0 |
| 20260507100034 | 49 | 290 | 0.9 | 5.2 | 0.00 | 0.28 | 0.04 | 84 | 1006.8 |
| 20260507095517 | 49 | 295 | 0.9 | 2.6 | 0.00 | 0.28 | 0.04 | 84 | 1006.8 |
| 20260507095019 | 49 | 0 | 0.0 | 2.6 | 0.00 | 0.28 | 0.04 | 84 | 1007.1 |
| 20260507094536 | 49 | 296 | 0.9 | 2.6 | 0.00 | 0.28 | 0.04 | 84 | 1007.3 |
| 20260507094018 | 49 | 319 | 0.9 | 2.6 | 0.00 | 0.28 | 0.04 | 85 | 1007.1 |
| 20260507093521 | 49 | 0 | 0.9 | 2.6 | 0.00 | 0.28 | 0.04 | 85 | 1006.8 |
| 20260507093035 | 49 | 316 | 0.9 | 4.3 | 0.00 | 0.28 | 0.04 | 85 | 1007.3 |
| 20260507092523 | 49 | 311 | 0.9 | 4.3 | 0.00 | 0.28 | 0.04 | 85 | 1007.0 |
| 20260507092017 | 50 | 0 | 0.0 | 2.6 | 0.00 | 0.28 | 0.04 | 85 | 1007.2 |
| 20260507091551 | 50 | 0 | 0.0 | 3.5 | 0.00 | 0.28 | 0.04 | 85 | 1007.2 |
| 20260507091018 | 50 | 279 | 0.9 | 3.5 | 0.00 | 0.28 | 0.04 | 85 | 1007.3 |
| 20260507090518 | 50 | 296 | 0.9 | 3.5 | 0.00 | 0.28 | 0.04 | 85 | 1007.4 |
| 20260507090032 | 50 | 0 | 0.9 | 3.5 | 0.00 | 0.28 | 0.04 | 85 | 1007.2 |
| 20260507085517 | 50 | 286 | 0.0 | 3.5 | 0.01 | 0.28 | 0.04 | 85 | 1007.0 |
| 20260507085018 | 50 | 293 | 0.9 | 3.5 | 0.01 | 0.28 | 0.04 | 84 | 1007.1 |
| 20260507084535 | 50 | 0 | 0.9 | 3.5 | 0.02 | 0.28 | 0.04 | 84 | 1006.8 |
| 20260507084019 | 50 | 0 | 0.9 | 3.5 | 0.02 | 0.28 | 0.04 | 85 | 1006.9 |
| 20260507083517 | 50 | 302 | 0.9 | 3.5 | 0.02 | 0.28 | 0.04 | 85 | 1007.0 |
| 20260507083040 | 50 | 0 | 0.9 | 3.5 | 0.02 | 0.28 | 0.04 | 85 | 1006.9 |
| 20260507082518 | 50 | 286 | 0.9 | 2.6 | 0.02 | 0.28 | 0.04 | 85 | 1006.6 |
| 20260507082019 | 51 | 311 | 0.0 | 1.7 | 0.02 | 0.28 | 0.04 | 84 | 1006.8 |
| 20260507081549 | 51 | 0 | 0.9 | 1.7 | 0.02 | 0.28 | 0.04 | 84 | 1006.9 |
| 20260507081017 | 51 | 350 | 0.0 | 1.7 | 0.02 | 0.28 | 0.04 | 84 | 1006.8 |
| 20260507080518 | 51 | 5 | 0.0 | 2.6 | 0.02 | 0.28 | 0.04 | 84 | 1006.8 |
| 20260507080040 | 51 | 33 | 0.0 | 3.5 | 0.01 | 0.27 | 0.03 | 84 | 1006.9 |
| 20260507075519 | 51 | 262 | 0.9 | 7.0 | 0.01 | 0.27 | 0.03 | 84 | 1007.1 |
| 20260507075017 | 51 | 345 | 0.9 | 7.0 | 0.01 | 0.27 | 0.03 | 84 | 1006.8 |
| 20260507074538 | 51 | 273 | 1.7 | 6.1 | 0.00 | 0.26 | 0.02 | 84 | 1006.9 |
| 20260507074019 | 51 | 304 | 0.9 | 5.2 | 0.00 | 0.26 | 0.02 | 84 | 1007.1 |
| 20260507073519 | 51 | 309 | 0.9 | 5.2 | 0.00 | 0.26 | 0.02 | 84 | 1006.9 |
| 20260507073049 | 51 | 296 | 0.9 | 2.6 | 0.00 | 0.26 | 0.02 | 85 | 1006.7 |
| 20260507072519 | 51 | 284 | 0.9 | 3.5 | 0.00 | 0.26 | 0.02 | 85 | 1006.5 |
| 20260507072022 | 51 | 289 | 0.0 | 3.5 | 0.00 | 0.26 | 0.02 | 85 | 1006.4 |
| 20260507071535 | 51 | 344 | 0.9 | 3.5 | 0.00 | 0.26 | 0.02 | 86 | 1006.3 |
| 20260507071018 | 52 | 0 | 0.0 | 3.5 | 0.00 | 0.26 | 0.02 | 86 | 1006.1 |
| 20260507070519 | 52 | 296 | 0.9 | 3.5 | 0.00 | 0.26 | 0.02 | 86 | 1006.5 |
| 20260507070039 | 52 | 277 | 0.9 | 3.5 | 0.00 | 0.26 | 0.02 | 86 | 1006.1 |
| 20260507065517 | 52 | 0 | 0.9 | 3.5 | 0.00 | 0.26 | 0.02 | 86 | 1006.0 |
| 20260507065015 | 52 | 325 | 0.9 | 3.5 | 0.00 | 0.26 | 0.02 | 87 | 1006.1 |
| 20260507064535 | 52 | 327 | 0.0 | 1.7 | 0.00 | 0.26 | 0.02 | 87 | 1006.2 |
| 20260507064018 | 52 | 298 | 0.0 | 1.7 | 0.00 | 0.26 | 0.02 | 87 | 1006.1 |
| 20260507063518 | 52 | 0 | 0.0 | 2.6 | 0.00 | 0.26 | 0.02 | 87 | 1006.1 |
| 20260507063033 | 52 | 304 | 0.0 | 2.6 | 0.00 | 0.26 | 0.02 | 87 | 1006.2 |
| 20260507062520 | 53 | 322 | 0.0 | 3.5 | 0.00 | 0.26 | 0.02 | 87 | 1006.0 |
| 20260507062017 | 53 | 250 | 0.0 | 4.3 | 0.00 | 0.26 | 0.02 | 87 | 1005.9 |
| 20260507061534 | 53 | 288 | 0.9 | 4.3 | 0.00 | 0.26 | 0.02 | 87 | 1005.9 |
| 20260507061017 | 53 | 307 | 0.9 | 4.3 | 0.00 | 0.26 | 0.02 | 87 | 1006.1 |
| 20260507060519 | 53 | 344 | 0.0 | 2.6 | 0.00 | 0.26 | 0.02 | 87 | 1005.9 |
| 20260507060036 | 53 | 0 | 0.0 | 1.7 | 0.00 | 0.26 | 0.02 | 87 | 1006.0 |
| 20260507055517 | 53 | 0 | 0.0 | 3.5 | 0.00 | 0.26 | 0.02 | 87 | 1006.2 |
| 20260507055021 | 53 | 0 | 0.0 | 5.2 | 0.00 | 0.26 | 0.02 | 87 | 1006.1 |
| 20260507054536 | 53 | 292 | 0.0 | 6.1 | 0.00 | 0.26 | 0.02 | 87 | 1006.3 |
| 20260507054020 | 53 | 347 | 0.9 | 6.1 | 0.00 | 0.26 | 0.02 | 87 | 1006.8 |
| 20260507053518 | 53 | 302 | 0.9 | 6.1 | 0.00 | 0.26 | 0.02 | 87 | 1006.4 |
| 20260507053031 | 54 | 281 | 0.0 | 3.5 | 0.00 | 0.26 | 0.02 | 87 | 1006.2 |
| 20260507052518 | 54 | 288 | 0.9 | 3.5 | 0.00 | 0.26 | 0.02 | 87 | 1006.3 |
| 20260507052020 | 54 | 309 | 0.9 | 2.6 | 0.00 | 0.26 | 0.02 | 87 | 1006.4 |
| 20260507051535 | 54 | 5 | 0.9 | 3.5 | 0.00 | 0.26 | 0.02 | 87 | 1006.3 |
| 20260507051017 | 54 | 273 | 0.9 | 5.2 | 0.01 | 0.26 | 0.02 | 87 | 1006.6 |
| 20260507050518 | 55 | 284 | 0.9 | 5.2 | 0.01 | 0.26 | 0.02 | 88 | 1006.3 |
| 20260507050034 | 55 | 272 | 0.9 | 7.8 | 0.02 | 0.26 | 0.02 | 87 | 1006.3 |
| 20260507045519 | 55 | 338 | 0.9 | 7.8 | 0.02 | 0.26 | 0.02 | 88 | 1006.5 |
| 20260507045021 | 56 | 255 | 0.9 | 7.0 | 0.02 | 0.26 | 0.02 | 88 | 1006.7 |
| 20260507044544 | 56 | 302 | 0.9 | 7.0 | 0.02 | 0.26 | 0.02 | 88 | 1006.3 |
| 20260507044020 | 56 | 329 | 0.9 | 5.2 | 0.02 | 0.26 | 0.02 | 88 | 1006.1 |
| 20260507043518 | 57 | 254 | 0.9 | 6.1 | 0.02 | 0.26 | 0.02 | 88 | 1006.0 |
| 20260507043040 | 57 | 313 | 0.9 | 6.1 | 0.02 | 0.26 | 0.02 | 88 | 1006.1 |
| 20260507042520 | 57 | 313 | 0.9 | 3.5 | 0.02 | 0.26 | 0.02 | 89 | 1006.0 |
| 20260507042019 | 57 | 295 | 0.9 | 3.5 | 0.02 | 0.26 | 0.02 | 88 | 1006.0 |
| 20260507041536 | 58 | 288 | 0.9 | 3.5 | 0.02 | 0.26 | 0.02 | 89 | 1006.2 |
| 20260507041018 | 58 | 278 | 0.9 | 3.5 | 0.01 | 0.25 | 0.01 | 89 | 1006.2 |
| 20260507040516 | 58 | 284 | 0.9 | 4.3 | 0.01 | 0.25 | 0.01 | 89 | 1006.3 |
| 20260507040035 | 58 | 292 | 0.9 | 5.2 | 0.00 | 0.24 | 0.00 | 89 | 1006.1 |
| 20260507035518 | 58 | 0 | 0.9 | 5.2 | 0.00 | 0.24 | 0.24 | 90 | 1006.1 |
| 20260507035017 | 58 | 311 | 0.9 | 3.5 | 0.00 | 0.24 | 0.24 | 90 | 1005.8 |
| 20260507034533 | 58 | 286 | 0.9 | 4.3 | 0.00 | 0.24 | 0.24 | 90 | 1005.7 |
| 20260507034019 | 59 | 284 | 1.7 | 4.3 | 0.00 | 0.24 | 0.24 | 90 | 1005.7 |
| 20260507033519 | 59 | 273 | 0.9 | 3.5 | 0.00 | 0.24 | 0.24 | 90 | 1005.6 |
| 20260507033033 | 59 | 269 | 0.9 | 3.5 | 0.00 | 0.24 | 0.24 | 91 | 1005.7 |
| 20260507032521 | 59 | 264 | 0.9 | 5.2 | 0.00 | 0.24 | 0.24 | 91 | 1005.4 |
| 20260507032019 | 59 | 294 | 0.9 | 5.2 | 0.00 | 0.24 | 0.24 | 91 | 1005.2 |
| 20260507031533 | 59 | 269 | 0.0 | 4.3 | 0.00 | 0.24 | 0.24 | 91 | 1005.1 |
| 20260507031017 | 59 | 0 | 0.0 | 4.3 | 0.00 | 0.24 | 0.24 | 91 | 1005.1 |
| 20260507030519 | 59 | 289 | 0.9 | 4.3 | 0.00 | 0.24 | 0.24 | 91 | 1004.9 |
| 20260507030040 | 59 | 0 | 1.7 | 3.5 | 0.00 | 0.24 | 0.24 | 91 | 1004.7 |
| 20260507025518 | 59 | 315 | 0.9 | 4.3 | 0.00 | 0.24 | 0.24 | 91 | 1004.7 |
| 20260507025017 | 59 | 270 | 0.0 | 4.3 | 0.00 | 0.24 | 0.24 | 91 | 1004.8 |
| 20260507024535 | 59 | 176 | 0.9 | 4.3 | 0.00 | 0.24 | 0.24 | 91 | 1004.9 |
| 20260507024016 | 59 | 132 | 0.9 | 4.3 | 0.00 | 0.24 | 0.24 | 91 | 1004.9 |
| 20260507023518 | 59 | 296 | 0.9 | 4.3 | 0.00 | 0.24 | 0.24 | 91 | 1004.9 |
| 20260507023034 | 59 | 223 | 0.9 | 4.3 | 0.00 | 0.24 | 0.24 | 91 | 1005.0 |
| 20260507022519 | 59 | 244 | 0.9 | 4.3 | 0.00 | 0.24 | 0.24 | 91 | 1004.9 |
| 20260507022018 | 59 | 301 | 0.0 | 3.5 | 0.00 | 0.24 | 0.24 | 90 | 1004.8 |
| 20260507021531 | 59 | 309 | 0.9 | 4.3 | 0.00 | 0.24 | 0.24 | 91 | 1004.7 |
| 20260507021017 | 59 | 217 | 0.9 | 4.3 | 0.00 | 0.24 | 0.24 | 91 | 1004.7 |
| 20260507020517 | 59 | 301 | 0.9 | 7.8 | 0.00 | 0.24 | 0.24 | 91 | 1004.7 |
| 20260507020035 | 59 | 0 | 1.7 | 7.8 | 0.00 | 0.24 | 0.24 | 91 | 1004.7 |
| 20260507015518 | 59 | 0 | 0.0 | 4.3 | 0.00 | 0.24 | 0.24 | 91 | 1005.0 |
| 20260507015019 | 59 | 175 | 0.0 | 4.3 | 0.00 | 0.24 | 0.24 | 91 | 1004.9 |
| 20260507014537 | 59 | 210 | 0.9 | 5.2 | 0.00 | 0.24 | 0.24 | 91 | 1005.1 |
| 20260507014017 | 59 | 352 | 0.9 | 5.2 | 0.01 | 0.24 | 0.24 | 91 | 1005.0 |
| 20260507013518 | 59 | 245 | 0.9 | 5.2 | 0.01 | 0.24 | 0.24 | 91 | 1005.1 |
| 20260507013035 | 59 | 162 | 0.9 | 6.1 | 0.01 | 0.24 | 0.24 | 91 | 1004.9 |
| 20260507012521 | 59 | 150 | 1.7 | 6.1 | 0.01 | 0.24 | 0.24 | 91 | 1005.1 |
| 20260507012021 | 59 | 103 | 0.0 | 5.2 | 0.01 | 0.24 | 0.24 | 91 | 1005.0 |
| 20260507011535 | 59 | 352 | 0.9 | 4.3 | 0.01 | 0.24 | 0.24 | 90 | 1005.1 |
| 20260507011020 | 59 | 222 | 0.9 | 4.3 | 0.01 | 0.24 | 0.24 | 91 | 1005.2 |
| 20260507010523 | 59 | 181 | 0.9 | 6.1 | 0.01 | 0.24 | 0.24 | 91 | 1005.1 |
| 20260507010036 | 59 | 251 | 0.9 | 6.1 | 0.01 | 0.24 | 0.24 | 90 | 1005.3 |
| 20260507005524 | 59 | 15 | 0.9 | 3.5 | 0.01 | 0.24 | 0.24 | 90 | 1005.2 |
| 20260507005020 | 59 | 304 | 0.9 | 7.0 | 0.01 | 0.24 | 0.24 | 90 | 1005.1 |